Eureka, Nunavut

11:14 AM CDT on July 23, 2017 (GMT -0500)
Eureka

Weather History for CWEU - February, 2013

Change the Weather History Date:

Saturday, February 9, 2013

  Actual Average Record
Temperature  
Mean Temperature -38 °F -  
Max Temperature -36 °F -30 °F 0 °F (1999)
Min Temperature -41 °F -43 °F -56 °F (2001)
Degree Days  
Heating Degree Days 104    
Moisture  
Dew Point -45 °F    
Average Humidity 63    
Maximum Humidity 74    
Minimum Humidity 47    
Precipitation  
Precipitation 0.00 in 0.00 in - ()
Sea Level Pressure  
Sea Level Pressure 29.92 in    
Wind  
Wind Speed 0 mph ()    
Max Wind Speed 4 mph    
Max Gust Speed -    
Visibility 8.3 miles    
Events Snow    
Averages and records for this station are not official NWS values.
T = Trace of Precipitation, MM = Missing Value Source: Averaged Metar Reports

Daily Weather History Graph

Daily Weather History Graph

Search for Another Location

Airport or City:

Trip Planner

Search our weather history database for the weather conditions in past years. The results will help you decide how hot, cold, wet, or windy it might be!

Date:

Astronomy

Dec. 31, 1969 Rise Set
Actual Time Sun does not set Sun does not set
Civil Twilight 9:46 AM CST 2:11 PM CST
Nautical Twilight 6:51 AM CST 5:07 PM CST
Astronomical Twilight 4:31 AM CST 7:28 PM CST
Moon No Moon Rise No Moon Set
Length of Visible Light 4h 24m
Length of Day
0h 00m
Waning Crescent, 0% of the Moon is Illuminated
Feb 9
Waning Crescent
Feb 10
New
Feb 17
First Quarter
Feb 25
Full
Mar 4
Last Quarter

Hourly Weather History & Observations

Time (CST) Temp. Windchill Dew Point Humidity Pressure Visibility Wind Dir Wind Speed Gust Speed Precip Events Conditions
12:00 AM -36 °F - -44 °F 47% 29.94 in 15 mi Calm Calm - - Snow Snow
12:00 AM -36.4 °F - -43.6 °F 67% 29.94 in 15.0 mi Calm Calm - N/A   Clear
1:00 AM -36.4 °F - -45.4 °F 61% 29.94 in 15.0 mi Calm Calm - N/A   Clear
2:00 AM -36.4 °F - -43.6 °F 67% 29.94 in 15.0 mi Calm Calm - N/A   Clear
3:00 AM -36.4 °F - -45.4 °F 61% 29.93 in 15.0 mi Calm Calm - N/A   Clear
4:00 AM -36.4 °F - -43.6 °F 67% 29.93 in 15.0 mi Calm Calm - N/A   Clear
5:00 AM -38.2 °F - -45.4 °F 67% 29.93 in 15.0 mi Calm Calm - N/A   Clear
6:00 AM -37 °F - -44 °F 48% 29.91 in 5 mi Calm Calm - - Snow Snow
6:00 AM -36.4 °F - -43.6 °F 67% 29.91 in 5.0 mi Calm Calm - N/A   Ice Crystals
7:00 AM -38.2 °F - -45.4 °F 67% 29.91 in 15.0 mi Calm Calm - N/A   Clear
8:00 AM -38.2 °F - -45.4 °F 67% 29.90 in 15.0 mi Calm Calm - N/A   Clear
10:00 AM -36.4 °F - -45.4 °F 61% 29.89 in 3.0 mi Calm Calm - N/A   Ice Crystals
11:00 AM -38.2 °F - -45.4 °F 67% 29.88 in 3.0 mi Calm Calm - N/A   Ice Crystals
12:00 PM -37 °F - -44 °F 48% 29.88 in 3 mi Calm Calm - - Snow Snow
12:00 PM -36.4 °F - -43.6 °F 67% 29.88 in 3.0 mi Calm Calm - N/A   Ice Crystals
1:00 PM -38.2 °F - -45.4 °F 67% 29.88 in 3.0 mi Calm Calm - N/A   Ice Crystals
1:15 PM - - - N/A% - 1.5 mi Calm Calm - N/A   Ice Crystals
2:00 PM -38.2 °F - -45.4 °F 67% 29.88 in 1.5 mi Calm Calm - N/A   Ice Crystals
3:00 PM -40.0 °F - -47.2 °F 67% 29.89 in 1.5 mi Calm Calm - N/A   Ice Crystals
4:00 PM -38.2 °F - -45.4 °F 67% 29.91 in 1.5 mi Calm Calm - N/A   Ice Crystals
5:00 PM -40.0 °F - -45.4 °F 74% 29.93 in 3.0 mi Calm Calm - N/A   Ice Crystals
6:00 PM -38 °F - -45 °F 48% 29.94 in 3 mi ESE 2.3 mph - - Snow Snow
6:00 PM -38.2 °F - -45.4 °F 67% 29.94 in 3.0 mi Calm Calm - N/A   Ice Crystals
7:00 PM -38.2 °F - -45.4 °F 67% 29.96 in 10.0 mi Calm Calm - N/A   Clear
8:00 PM -40.0 °F -53.5 °F -47.2 °F 67% 29.98 in 15.0 mi NE 3.5 mph - N/A   Clear
9:00 PM -41.8 °F - -49.0 °F 67% 30.00 in 15.0 mi ENE 2.3 mph - N/A   Clear